Location: Mountain View
(37.3861°N, 122.0839°W)
Time: 21:41:48
(UTC-07:00)

HTV-X1 - Visible Passes

Search period start: 20 May 2026 00:00
Search period end: 30 May 2026 00:00
Orbit: 372 x 382 km, 51.6° (Epoch: 20 May)

Date Brightness Start Highest point End Pass type
(mag) Time Alt. Az. Time Alt. Az. Time Alt. Az.
20 May ? 21:56:43 10° N 21:57:36 11° NNE 21:58:28 10° NE visible
20 May ? 23:30:58 10° NW 23:31:26 14° NW 23:31:26 14° NW visible
21 May ? 22:30:08 10° NNW 22:32:30 25° NNE 22:32:30 25° NNE visible
22 May ? 21:29:36 10° N 21:31:21 14° NNE 21:33:06 10° ENE visible
22 May ? 23:04:29 10° NW 23:05:38 21° NW 23:05:38 21° NW visible
23 May ? 22:03:25 10° NW 22:06:19 38° NE 22:06:42 36° NE visible
24 May ? 21:02:36 10° NNW 21:04:54 19° NNE 21:07:13 10° ENE visible
24 May ? 22:37:58 10° WNW 22:39:51 29° W 22:39:51 29° W visible
25 May ? 21:36:37 10° NW 21:39:40 65° NE 21:40:56 31° ESE visible
26 May ? 22:11:29 10° WNW 22:14:03 24° SW 22:14:06 24° SW visible
27 May ? 21:09:46 10° NW 21:12:50 70° SW 21:15:14 15° SE visible
28 May ? 21:45:13 10° W 21:47:00 15° SW 21:48:28 11° SSW visible
